User: anonymous   Login
Location: Unspecified
(0.0000°N, 0.0000°E)
Time: 13:04:34
(UTC+00:00)
Language:

Cosmos 1602 Rocket - Orbit

View from above orbital plane
View from above orbital plane
View from above satellite
View from above satellite

Ground track
Ground track

The orbit data is extracted from the following two-line orbital elements,

1 15332U 84105B   24053.78258943  .00000702  00000-0  80558-4 0  9991
2 15332  82.5308  64.9486 0019306 233.3214 299.7520 14.84385765107504
Epoch (UTC): 22 February 2024 18:46:55
Eccentricity: 0.0019306
inclination: 82.5308°
perigee height: 602 km
apogee height: 629 km
right ascension of ascending node: 64.9486°
argument of perigee: 233.3214°
revolutions per day: 14.84385765
mean anomaly at epoch: 299.7520°
orbit number at epoch: 10750

The dashed part of the orbit path shows where the satellite is in the earth's shadow,  

DLR